Regional Weather Roundup
Issued by NWS

Home | Current Version | Previous Version | Graphics & Text | Print | Product List | Glossary On
Versions: 1 2 3 4 5 6 7 8 9 10 11 12 13 14 15 16 17 18 19 20 21 22 23 24 25 26 27
000
ASUS45 KTFX 272310
RWRMT
MONTANA REGIONAL WEATHER ROUNDUP
NATIONAL WEATHER SERVICE GREAT FALLS MT
500 PM MDT TUE SEP 27 2016

NOTE: "FAIR" INDICATES FEW OR NO CLOUDS BELOW 12000 FEET WITH NO
SIGNIFICANT WEATHER AND/OR OBSTRUCTIONS TO VISIBILITY.

MTZ001>007-043-280000-
WEST OF THE DIVIDE

CITY           SKY/WX    TMP DP  RH WIND       PRES   REMARKS
KALISPELL      SUNNY     81  45  28 S8        30.00F
MISSOULA       SUNNY     83  43  24 CALM      30.04F
BUTTE          SUNNY     77  34  21 NW10G17   30.16F
MULLAN PASS    SUNNY     65  43  44 VRB6      30.21S
ANACONDA         N/A     81  34  18 N9        30.12R
DEER LODGE       N/A     81  37  21 NW9       30.14R
EUREKA           N/A     82  39  21 SW9       30.00S
HAMILTON         N/A     84  39  20 CALM      30.05S
LIBBY            N/A     82  45  26 S5        30.00R
RONAN            N/A     83  44  25 S3        30.07F
$$

MTZ008-052>055-280000-
SOUTHWEST MONTANA

CITY           SKY/WX    TMP DP  RH WIND       PRES   REMARKS
BOZEMAN        SUNNY     80  39  23 NE3       30.11F
DILLON         SUNNY     79  34  19 CALM      30.13F
W YELLOWSTONE  SUNNY     72  32  23 SW6       30.25S
ENNIS          SUNNY     77  28  16 CALM      30.20S
THREE FORKS      N/A     82  82 100 SW7       30.07F HX  96
TWIN BRIDGES     N/A     79  38  22 S5        30.10F
$$

MTZ009-010-012-014-046-048-049-054-280000-
EAST SLOPES AND CENTRAL MONTANA

CITY           SKY/WX    TMP DP  RH WIND       PRES   REMARKS
CUT BANK       SUNNY     70  45  40 N28       30.06R
GREAT FALLS    SUNNY     83  38  20 W9        30.01S
MALMSTROM AFB  SUNNY     82  41  23 SW8       30.01S
HELENA         SUNNY     83  39  21 NE7       30.05S
AUGUSTA          N/A     80  35  20 W18       30.06S
BOWMANS CRNR     N/A     79  37  21 NW12      30.04S
CHOTEAU          N/A     82  37  20 W7        30.05S
CONRAD           N/A     83  42  23 W14       30.05R
FAIRFIELD        N/A     82  36  19 W3        30.02S
POWER            N/A     82  37  19 SW8       30.01S
RAYNESFORD       N/A     80  39  22 W9        30.05S
$$

MTZ011-013-016-021-045-047-050-051-280000-
NORTH CENTRAL MONTANA

CITY           SKY/WX    TMP DP  RH WIND       PRES   REMARKS
HAVRE          SUNNY     87  42  20 W15       29.92S
LEWISTOWN      SUNNY     79  37  22 N7        30.06R
N BAR RANCH      N/A     79  34  19 NW14      30.09S
CHINOOK          N/A     86  45  23 W13       29.90S
DENTON           N/A     82  36  19 NW8       29.99S
GEYSER           N/A     80  35  20 W18       30.06S
GRASS RANGE      N/A     79  36  21 NW10      30.01R
JUDITH GAP       N/A     77  38  24 N15G25    30.08S
ROY              N/A     79  42  26 MISG      30.01R
STANFORD         N/A     78  38  24 NW12G21   30.07R
WINIFRED         N/A     80  37  21 MISG      30.02S
$$

MTZ017>020-022>027-061-062-280000-
NORTHEAST MONTANA

CITY           SKY/WX    TMP DP  RH WIND       PRES   REMARKS
GLASGOW        LGT RAIN  86  41  20 NW17G25   29.90S
JORDAN           N/A     85  40  20 NW12      29.95R
SIDNEY         SUNNY     82  53  36 CALM      29.91S
WOLF POINT     SUNNY     84  49  29 SW6       29.90S
PLENTYWOOD       N/A     81  50  34 SE9       29.90R
POPLAR           N/A     82  48  30 SW9       29.90S
$$

MTZ028>42-056>058-280000-
SOUTHCENTRAL AND SOUTHEAST MONTANA

CITY           SKY/WX    TMP DP  RH WIND       PRES   REMARKS
BAKER          SUNNY     78  45  30 NW12      29.99S
BILLINGS       SUNNY     85  36  17 NW10      30.03S
LIVINGSTON     SUNNY     82  32  16 NW9       30.10S
MILES CITY     SUNNY     83  44  25 W10       29.96S
BIG TIMBER     SUNNY     79  34  19 W17       30.11S
FORSYTH          N/A     82  46  28 SW6       29.97S
HARLOWTON        N/A     80  34  19 N10G22    30.07R
LAUREL           N/A     84  40  21 W2        30.02F
ROUNDUP          N/A     84  40  21 N7        29.93S
$$

REGIONAL REPORTS...DAKOTAS

CITY           SKY/WX    TMP DP  RH WIND       PRES   REMARKS
WILLISTON      SUNNY     79  52  38 SW5       29.91S
MINOT          SUNNY     71  41  33 NE7       29.94R
DICKINSON      SUNNY     76  43  30 NW12      29.93S
BEACH            N/A     77  46  33 NW9       29.99S
CROSBY           N/A     77  45  31 S3        29.93S
WATFORD CITY     N/A     79  48  34 CALM      29.92S
BISMARCK       SUNNY     72  42  34 N6        29.93S
GRAND FORKS    MOSUNNY   57  44  62 N18       29.93R
FARGO          SUNNY     60  41  49 N14G22    29.90R
BUFFALO SD       N/A     81  41  24 NW20      29.91S
RAPID CITY     SUNNY     82  41  23 N22       29.98S
$$

REGIONAL REPORTS...WYOMING/IDAHO/WASHINGTON

CITY           SKY/WX    TMP DP  RH WIND       PRES   REMARKS
GILLETTE       SUNNY     78  38  23 NW13      30.08S
SHERIDAN       SUNNY     80  42  25 NW14      30.06S
BUFFALO WY     SUNNY     78  34  20 N13       30.13S
CODY           SUNNY     77  40  26 E8        30.14S
YELLOWSTONE LA   N/A     62  42  47 CALM      30.34F
IDAHO FALLS    SUNNY     77  34  21 W3        30.15F
SALMON         SUNNY     77  41  27 CALM      30.06F
BOISE          SUNNY     86  42  21 VRB3      30.00F
SPOKANE        MOSUNNY   79  40  24 W13       30.03S
$$

REGIONAL REPORTS...ALBERTA

CITY           SKY/WX    TMP DP  RH WIND       PRES   REMARKS
EDMONTON       MOSUNNY   59  28  31 NW12G17   30.10R
CALGARY        PTSUNNY   52  34  50 NW15      30.17R
LETHBRIDGE     MOSUNNY   63  37  39 N15G24    30.11R
MEDICINE HAT   MOSUNNY   68  43  40 N18G25    30.03R
WATERTON GATE    N/A     61  41  48 NE9         N/A
MILK RIVER       N/A     64  45  48 N22G29      N/A
$$

REGIONAL REPORTS...SASKATCHEWAN

CITY           SKY/WX    TMP DP  RH WIND       PRES   REMARKS
SWIFT CURRENT  SUNNY     77  46  33 NW15      29.91R
REGINA         SUNNY     77  48  36 S7        29.86S
SASKATOON      MOSUNNY   70  46  43 NW23G30   29.89R
VAL MARIE        N/A     84  41  21 NW12        N/A
ASSINIBOIA       N/A     59  34  38 NW14        N/A
$$




USA.gov is the U.S. government's official web portal to all federal, state and local government web resources and services.